BEL9AO EBBR-EPWA

Flight info

Callsign BEL9AO
Flight time N/A
Altitude 39000
Route SPI Y862 KENUM N853 ONUNE DCT POVEL DCT SUBIX DCT MOLIL P851 BIMPA
Aircraft A319/M-DE3FGIJ1LORVWY/HB1

Departure

Time 2026-05-06 17:46
Airport Brussels Airport (EBBR)

Arrival

Time N/A
Airport Warsaw Chopin Airport (EPWA)
Time Latitude Longitude Altitude Speed Heading
2026-05-06 17:41 50.89075 4.47929 187 ft 0 kts 210°
2026-05-06 17:42 50.89073 4.47927 186 ft 2 kts 210°
2026-05-06 17:43 50.89007 4.47908 189 ft 18 kts 175°
2026-05-06 17:43 50.88936 4.48055 183 ft 18 kts 108°
2026-05-06 17:43 50.88947 4.48227 183 ft 0 kts 70°
2026-05-06 17:45 50.88969 4.48319 183 ft 37 kts 69°
2026-05-06 17:45 50.89149 4.49083 193 ft 108 kts 70°
2026-05-06 17:46 50.89469 4.50485 189 ft 161 kts 70°
2026-05-06 17:46 50.89828 4.52164 912 ft 149 kts 69°
2026-05-06 17:46 50.90236 4.53694 1601 ft 157 kts 62°
2026-05-06 17:46 50.90772 4.55338 2009 ft 179 kts 60°
2026-05-06 17:47 50.91382 4.57165 2475 ft 193 kts 61°
2026-05-06 17:47 50.92014 4.59067 3122 ft 197 kts 61°
2026-05-06 17:47 50.92652 4.60999 3768 ft 200 kts 60°
2026-05-06 17:47 50.93291 4.62952 4405 ft 203 kts 60°
2026-05-06 17:48 50.93852 4.65039 5032 ft 207 kts 71°
2026-05-06 17:48 50.94274 4.67244 5651 ft 211 kts 71°
2026-05-06 17:48 50.94711 4.69501 5954 ft 217 kts 69°
2026-05-06 17:48 50.95152 4.71781 5895 ft 215 kts 70°
2026-05-06 17:49 50.95425 4.74128 5901 ft 219 kts 84°
2026-05-06 17:49 50.95269 4.76558 6053 ft 227 kts 101°
2026-05-06 17:49 50.94890 4.79045 6450 ft 243 kts 99°
2026-05-06 17:49 50.94537 4.81796 6804 ft 268 kts 98°
2026-05-06 17:50 50.94162 4.84787 7154 ft 280 kts 99°
2026-05-06 17:50 50.93790 4.87796 7510 ft 282 kts 99°
2026-05-06 17:50 50.93667 4.88790 7625 ft 283 kts 99°
2026-05-06 17:50 50.93366 4.91143 7899 ft 284 kts 99°
2026-05-06 17:51 50.92983 4.94230 8258 ft 286 kts 98°
2026-05-06 17:51 50.92599 4.97332 8621 ft 289 kts 99°
2026-05-06 17:51 50.92214 5.00466 8991 ft 290 kts 98°
2026-05-06 17:51 50.91839 5.03609 9362 ft 291 kts 98°
2026-05-06 17:52 50.91459 5.06774 9736 ft 293 kts 98°
2026-05-06 17:52 50.91070 5.09981 10084 ft 304 kts 98°
2026-05-06 17:52 50.90662 5.13391 10435 ft 326 kts 99°
2026-05-06 17:52 50.90245 5.16998 10783 ft 338 kts 99°
2026-05-06 17:53 50.89818 5.20687 11133 ft 342 kts 98°
2026-05-06 17:53 50.89383 5.24406 11488 ft 344 kts 99°
2026-05-06 17:53 50.88955 5.28147 11840 ft 346 kts 98°
2026-05-06 17:53 50.88528 5.31905 12207 ft 348 kts 99°
2026-05-06 17:54 50.88097 5.35704 12572 ft 351 kts 99°
2026-05-06 17:54 50.87663 5.39518 12940 ft 353 kts 99°
2026-05-06 17:54 50.87237 5.43356 13308 ft 354 kts 99°
2026-05-06 17:54 50.86807 5.47216 13688 ft 358 kts 99°
2026-05-06 17:55 50.86375 5.51107 14022 ft 360 kts 99°
2026-05-06 17:55 50.85946 5.55022 14364 ft 361 kts 99°
2026-05-06 17:55 50.85522 5.58951 14707 ft 363 kts 99°
2026-05-06 17:55 50.85094 5.62905 15043 ft 367 kts 99°
2026-05-06 17:56 50.84671 5.66839 15396 ft 367 kts 99°
2026-05-06 17:56 50.84240 5.70879 15756 ft 369 kts 99°
2026-05-06 17:56 50.83816 5.74892 16118 ft 371 kts 99°
2026-05-06 17:56 50.83396 5.78930 16477 ft 373 kts 99°
2026-05-06 17:57 50.82981 5.82984 16848 ft 375 kts 99°
2026-05-06 17:57 50.82568 5.87065 17219 ft 377 kts 99°
2026-05-06 17:57 50.82159 5.91174 17588 ft 379 kts 99°
2026-05-06 17:57 50.81757 5.95268 17976 ft 381 kts 99°
2026-05-06 17:58 50.81348 5.99480 18339 ft 384 kts 99°
2026-05-06 17:58 50.80943 6.03666 18670 ft 386 kts 99°
2026-05-06 17:58 50.80543 6.07801 19001 ft 387 kts 99°
2026-05-06 17:58 50.80135 6.12014 19346 ft 388 kts 99°
2026-05-06 17:59 50.79733 6.16241 19687 ft 390 kts 99°
2026-05-06 17:59 50.79328 6.20490 20030 ft 392 kts 99°
2026-05-06 17:59 50.78919 6.24752 20385 ft 393 kts 99°
2026-05-06 17:59 50.78506 6.29039 20738 ft 395 kts 99°
2026-05-06 18:00 50.78090 6.33343 21098 ft 397 kts 99°
2026-05-06 18:00 50.77669 6.37663 21464 ft 399 kts 99°
2026-05-06 18:00 50.77245 6.42011 21820 ft 401 kts 99°
2026-05-06 18:00 50.76819 6.46374 22208 ft 403 kts 99°
2026-05-06 18:01 50.76386 6.50758 22591 ft 405 kts 99°
2026-05-06 18:01 50.75951 6.55157 22965 ft 408 kts 99°
2026-05-06 18:01 50.75515 6.59599 23369 ft 410 kts 99°
2026-05-06 18:01 50.75080 6.64047 23711 ft 411 kts 99°
2026-05-06 18:02 50.74877 6.68556 24049 ft 414 kts 86°
2026-05-06 18:02 50.75194 6.71586 24406 ft 414 kts 74°
2026-05-06 18:02 50.76331 6.75726 25039 ft 411 kts 57°
2026-05-06 18:02 50.78143 6.79094 25677 ft 407 kts 40°
2026-05-06 18:03 50.80505 6.81488 26337 ft 402 kts 22°
2026-05-06 18:03 50.83175 6.82699 27011 ft 397 kts
2026-05-06 18:03 50.85915 6.82965 27701 ft 393 kts
2026-05-06 18:03 50.88634 6.83158 28410 ft 389 kts
2026-05-06 18:04 50.91323 6.83357 29137 ft 385 kts
2026-05-06 18:04 50.93984 6.83561 29880 ft 380 kts
2026-05-06 18:04 50.96612 6.83766 30533 ft 375 kts
2026-05-06 18:05 51.04368 6.84544 32415 ft 360 kts
2026-05-06 18:05 51.06789 6.85487 32730 ft 364 kts 18°
2026-05-06 18:05 51.09130 6.87027 33041 ft 367 kts 27°
2026-05-06 18:06 51.11325 6.89121 33342 ft 370 kts 36°
2026-05-06 18:06 51.13344 6.91771 33649 ft 373 kts 45°
2026-05-06 18:06 51.15058 6.94818 33893 ft 376 kts 54°
2026-05-06 18:06 51.16631 6.98165 34133 ft 379 kts 54°
2026-05-06 18:07 51.18213 7.01537 34367 ft 381 kts 54°
2026-05-06 18:07 51.19805 7.04935 34600 ft 384 kts 54°
2026-05-06 18:07 51.21408 7.08350 34836 ft 386 kts 53°
2026-05-06 18:07 51.23019 7.11786 35064 ft 388 kts 54°
2026-05-06 18:08 51.24639 7.15246 35289 ft 390 kts 53°
2026-05-06 18:08 51.26268 7.18730 35475 ft 393 kts 54°
2026-05-06 18:08 51.27907 7.22242 35679 ft 396 kts 54°
2026-05-06 18:08 51.29557 7.25788 35895 ft 398 kts 54°
2026-05-06 18:09 51.31208 7.29345 36100 ft 400 kts 54°
2026-05-06 18:09 51.32869 7.32926 36293 ft 402 kts 54°
2026-05-06 18:09 51.34537 7.36525 36498 ft 404 kts 54°
2026-05-06 18:09 51.36163 7.40206 36674 ft 406 kts 59°
2026-05-06 18:10 51.37496 7.44186 36850 ft 407 kts 68°
2026-05-06 18:10 51.38526 7.48346 37014 ft 408 kts 71°
2026-05-06 18:10 51.39539 7.52601 37181 ft 410 kts 70°
2026-05-06 18:10 51.40558 7.56866 37357 ft 411 kts 70°
2026-05-06 18:11 51.41586 7.61151 37524 ft 413 kts 70°
2026-05-06 18:11 51.42617 7.65451 37691 ft 414 kts 70°
2026-05-06 18:11 51.43648 7.69768 37828 ft 416 kts 70°
2026-05-06 18:11 51.44684 7.74121 37944 ft 419 kts 70°
2026-05-06 18:12 51.45721 7.78492 38081 ft 421 kts 70°
2026-05-06 18:12 51.46764 7.82886 38223 ft 422 kts 70°
2026-05-06 18:12 51.47807 7.87297 38379 ft 424 kts 70°
2026-05-06 18:12 51.48856 7.91735 38506 ft 425 kts 70°
2026-05-06 18:13 51.49903 7.96174 38625 ft 427 kts 71°
2026-05-06 18:13 51.50948 8.00629 38763 ft 426 kts 71°
2026-05-06 18:13 51.53042 8.09614 38883 ft 433 kts 71°
2026-05-06 18:14 51.55173 8.18769 38869 ft 442 kts 71°
2026-05-06 18:14 51.57338 8.28119 38865 ft 451 kts 71°
2026-05-06 18:15 51.59527 8.37602 38857 ft 459 kts 71°
2026-05-06 18:15 51.61767 8.47329 38838 ft 468 kts 71°
2026-05-06 18:16 51.64045 8.57238 38838 ft 474 kts 71°
2026-05-06 18:16 51.66321 8.67222 38835 ft 476 kts 71°
2026-05-06 18:17 51.68591 8.77247 38834 ft 476 kts 71°
2026-05-06 18:17 51.70857 8.87283 38842 ft 477 kts 71°
2026-05-06 18:18 51.73115 8.97326 38847 ft 477 kts 71°
2026-05-06 18:18 51.75369 9.07400 38843 ft 477 kts 71°
2026-05-06 18:19 51.77606 9.17483 38836 ft 477 kts 71°
2026-05-06 18:19 51.79839 9.27570 38836 ft 477 kts 72°
2026-05-06 18:20 51.82062 9.37674 38835 ft 477 kts 72°
2026-05-06 18:20 51.84274 9.47797 38838 ft 477 kts 72°
2026-05-06 18:21 51.86470 9.57851 38838 ft 477 kts 72°
2026-05-06 18:21 51.88677 9.67980 38842 ft 477 kts 72°
2026-05-06 18:22 51.90873 9.78123 38842 ft 477 kts 72°
2026-05-06 18:22 51.93062 9.88300 38825 ft 478 kts 72°
2026-05-06 18:23 51.95235 9.98477 38828 ft 478 kts 72°
2026-05-06 18:23 51.97400 10.08675 38829 ft 479 kts 72°
2026-05-06 18:24 51.99551 10.18869 38832 ft 479 kts 72°
2026-05-06 18:24 52.01710 10.29093 38830 ft 479 kts 72°
2026-05-06 18:25 52.03861 10.39332 38816 ft 479 kts 73°
2026-05-06 18:25 52.06002 10.49595 38824 ft 480 kts 73°
2026-05-06 18:26 52.08055 10.59496 38822 ft 480 kts 73°
2026-05-06 18:26 52.10192 10.69845 38830 ft 481 kts 73°
2026-05-06 18:27 52.12303 10.80168 38827 ft 481 kts 75°
2026-05-06 18:27 52.13518 10.90802 38815 ft 478 kts 85°
2026-05-06 18:28 52.14385 11.01428 38829 ft 477 kts 85°
2026-05-06 18:28 52.15244 11.12046 38843 ft 478 kts 85°
2026-05-06 18:29 52.16102 11.22766 38833 ft 477 kts 85°
2026-05-06 18:29 52.16950 11.33479 38831 ft 477 kts 85°
2026-05-06 18:30 52.17791 11.44229 38827 ft 477 kts 85°
2026-05-06 18:30 52.18616 11.54963 38833 ft 477 kts 85°
2026-05-06 18:31 52.19441 11.65715 38848 ft 478 kts 85°
2026-05-06 18:31 52.20252 11.76409 38843 ft 478 kts 85°
2026-05-06 18:32 52.21052 11.87159 38842 ft 478 kts 86°
2026-05-06 18:32 52.21846 11.97921 38818 ft 478 kts 86°
2026-05-06 18:33 52.22628 12.08696 38832 ft 478 kts 86°
2026-05-06 18:33 52.23398 12.19484 38838 ft 479 kts 86°
2026-05-06 18:34 52.24160 12.30242 38839 ft 479 kts 86°
2026-05-06 18:34 52.24913 12.41038 38834 ft 479 kts 86°
2026-05-06 18:35 52.25660 12.51831 38821 ft 479 kts 86°
2026-05-06 18:35 52.26398 12.62642 38817 ft 479 kts 86°
2026-05-06 18:36 52.27124 12.73450 38827 ft 479 kts 86°
2026-05-06 18:36 52.27840 12.84257 38826 ft 479 kts 86°
2026-05-06 18:37 52.28428 12.93242 38827 ft 479 kts 87°
2026-05-06 18:37 52.29238 13.05823 38819 ft 479 kts 87°
2026-05-06 18:38 52.29817 13.14905 38831 ft 480 kts 87°
2026-05-06 18:38 52.30487 13.25681 38840 ft 480 kts 87°
2026-05-06 18:39 52.31150 13.36555 38848 ft 480 kts 87°
2026-05-06 18:40 52.32135 13.52840 38833 ft 481 kts 87°
2026-05-06 18:40 52.32780 13.63705 38838 ft 481 kts 87°
2026-05-06 18:41 52.33424 13.74599 38843 ft 481 kts 87°
2026-05-06 18:41 52.34053 13.85534 38848 ft 482 kts 87°
2026-05-06 18:42 52.34669 13.96442 38850 ft 482 kts 88°
2026-05-06 18:42 52.35272 14.07291 38843 ft 481 kts 88°
2026-05-06 18:43 52.35869 14.18193 38852 ft 481 kts 88°
2026-05-06 18:43 52.36447 14.29097 38853 ft 481 kts 88°
2026-05-06 18:44 52.37018 14.40002 38851 ft 481 kts 88°
2026-05-06 18:44 52.37583 14.50910 38859 ft 480 kts 88°
2026-05-06 18:45 52.38148 14.61801 38857 ft 481 kts 87°
2026-05-06 18:45 52.38935 14.72671 38852 ft 481 kts 85°
2026-05-06 18:46 52.39852 14.83538 38851 ft 481 kts 85°
2026-05-06 18:46 52.40710 14.94413 38856 ft 481 kts 85°
2026-05-06 18:47 52.41497 15.05296 38848 ft 481 kts 86°
2026-05-06 18:47 52.42269 15.16181 38840 ft 481 kts 86°
2026-05-06 18:48 52.43047 15.27070 38844 ft 481 kts 86°
2026-05-06 18:48 52.43818 15.37963 38847 ft 481 kts 86°
2026-05-06 18:49 52.44573 15.48770 38851 ft 481 kts 86°
2026-05-06 18:49 52.45321 15.59672 38852 ft 481 kts 86°
2026-05-06 18:50 52.46062 15.70577 38833 ft 481 kts 86°
2026-05-06 18:50 52.46788 15.81500 38839 ft 482 kts 86°
2026-05-06 18:51 52.47508 15.92424 38843 ft 482 kts 86°
2026-05-06 18:51 52.48218 16.03359 38845 ft 482 kts 86°
2026-05-06 18:52 52.48917 16.14303 38832 ft 482 kts 86°
2026-05-06 18:52 52.49609 16.25262 38834 ft 483 kts 86°
2026-05-06 18:53 52.50294 16.36242 38826 ft 484 kts 86°
2026-05-06 18:53 52.50964 16.47237 38826 ft 484 kts 87°
2026-05-06 18:54 52.51624 16.58223 38828 ft 484 kts 87°
2026-05-06 18:54 52.52276 16.69234 38809 ft 484 kts 87°
2026-05-06 18:55 52.52919 16.80243 38817 ft 484 kts 87°
2026-05-06 18:55 52.53541 16.91199 38847 ft 485 kts 87°
2026-05-06 18:56 52.54160 17.02211 38843 ft 485 kts 87°
2026-05-06 18:56 52.54779 17.13320 38842 ft 485 kts 87°
2026-05-06 18:57 52.55381 17.24267 38821 ft 485 kts 87°
2026-05-06 18:57 52.55974 17.35306 38825 ft 485 kts 88°
2026-05-06 18:58 52.56551 17.46345 38827 ft 485 kts 88°
2026-05-06 18:58 52.57127 17.57403 38831 ft 485 kts 88°
2026-05-06 18:59 52.57683 17.68464 38828 ft 485 kts 88°
2026-05-06 18:59 52.58197 17.79523 38800 ft 484 kts 93°
2026-05-06 19:00 52.57462 17.90435 38803 ft 480 kts 101°
2026-05-06 19:00 52.56547 18.01308 38814 ft 480 kts 101°
2026-05-06 19:01 52.55622 18.12184 38813 ft 481 kts 101°
2026-05-06 19:01 52.54692 18.22996 38820 ft 481 kts 101°
2026-05-06 19:02 52.53752 18.33863 38806 ft 480 kts 101°
2026-05-06 19:02 52.52806 18.44725 38814 ft 480 kts 101°
2026-05-06 19:03 52.51841 18.55572 38813 ft 480 kts 102°
2026-05-06 19:03 52.51409 18.60330 38813 ft 480 kts 102°
2026-05-06 19:04 52.50433 18.71138 38262 ft 478 kts 101°
2026-05-06 19:04 52.49949 18.76517 37563 ft 477 kts 102°
2026-05-06 19:04 52.49463 18.81914 36857 ft 477 kts 102°
2026-05-06 19:04 52.48973 18.87297 35998 ft 476 kts 102°
2026-05-06 19:05 52.48479 18.92677 34901 ft 478 kts 103°
2026-05-06 19:05 52.47980 18.98075 33806 ft 479 kts 103°
2026-05-06 19:05 52.47478 19.03469 32785 ft 476 kts 103°
2026-05-06 19:05 52.46983 19.08802 31928 ft 469 kts 104°
2026-05-06 19:06 52.46493 19.14031 31113 ft 461 kts 104°
2026-05-06 19:06 52.46007 19.19200 30319 ft 454 kts 104°
2026-05-06 19:06 52.45528 19.24277 29499 ft 448 kts 104°
2026-05-06 19:06 52.45051 19.29283 28597 ft 441 kts 104°
2026-05-06 19:07 52.44577 19.34216 27740 ft 435 kts 104°
2026-05-06 19:07 52.44108 19.39069 26894 ft 429 kts 104°
2026-05-06 19:07 52.43642 19.43880 26084 ft 424 kts 104°
2026-05-06 19:07 52.43180 19.48630 25309 ft 420 kts 104°
2026-05-06 19:08 52.42722 19.53322 24589 ft 416 kts 104°
2026-05-06 19:08 52.42265 19.57976 23862 ft 411 kts 104°
2026-05-06 19:08 52.41817 19.62520 23123 ft 408 kts 104°
2026-05-06 19:08 52.41359 19.67147 22308 ft 403 kts 104°
2026-05-06 19:09 52.40914 19.71645 21550 ft 398 kts 104°
2026-05-06 19:09 52.40474 19.76098 20800 ft 393 kts 104°
2026-05-06 19:09 52.40037 19.80492 20076 ft 388 kts 104°
2026-05-06 19:09 52.39601 19.84821 19372 ft 384 kts 104°
2026-05-06 19:10 52.39170 19.89107 18675 ft 379 kts 104°
2026-05-06 19:10 52.38744 19.93353 17994 ft 375 kts 104°
2026-05-06 19:10 52.38322 19.97537 17241 ft 371 kts 104°
2026-05-06 19:10 52.37903 20.01679 16521 ft 366 kts 104°
2026-05-06 19:11 52.37486 20.05766 15829 ft 362 kts 104°
2026-05-06 19:11 52.37069 20.09811 15161 ft 358 kts 104°
2026-05-06 19:11 52.36657 20.13799 14506 ft 354 kts 104°
2026-05-06 19:11 52.36248 20.17751 13878 ft 350 kts 103°
2026-05-06 19:12 52.35845 20.21652 13206 ft 346 kts 103°
2026-05-06 19:12 52.35443 20.25519 12476 ft 343 kts 103°
2026-05-06 19:12 52.35044 20.29335 11802 ft 339 kts 103°
2026-05-06 19:12 52.34689 20.32702 11215 ft 335 kts 104°
2026-05-06 19:13 52.34283 20.36562 10538 ft 331 kts 104°
2026-05-06 19:13 52.33849 20.40676 9837 ft 326 kts 104°